KD7MPG-3 Weather Reports


time (UTC)temp
F
wind
direction
speed
knots
gust
knots
rain 1hr
in
rain 24hr
in
rain mn
in
humidity
%
barometer
mb
20260902184920 59 93 1.7 5.2 0.15 0.23 0.23 90 1014.8
20260902184420 59 132 1.7 7.8 0.14 0.22 0.22 90 1014.9
20260902183919 59 98 1.7 7.8 0.13 0.21 0.21 90 1014.8
20260902183418 59 117 1.7 5.2 0.12 0.20 0.20 90 1014.9
20260902182916 59 175 2.6 8.7 0.11 0.18 0.18 89 1015.1
20260902182418 59 79 2.6 8.7 0.10 0.17 0.17 89 1015.3
20260902181912 59 136 2.6 7.0 0.08 0.15 0.14 89 1015.1
20260902181406 59 132 1.7 6.1 0.07 0.13 0.12 89 1015.2
20260902180900 59 142 2.6 7.8 0.07 0.12 0.11 89 1015.0
20260902180354 59 147 2.6 7.8 0.06 0.10 0.09 89 1015.1
20260902175850 59 117 2.6 9.6 0.05 0.09 0.09 89 1015.3
20260902175350 59 171 2.6 9.6 0.06 0.09 0.08 89 1015.2
20260902174851 59 110 2.6 8.7 0.07 0.09 0.08 89 1015.2
20260902174350 59 152 2.6 6.1 0.07 0.09 0.08 89 1015.4
20260902173851 59 122 1.7 6.1 0.07 0.09 0.08 89 1015.4
20260902173351 59 162 1.7 6.1 0.08 0.09 0.08 89 1015.4
20260902172847 59 157 1.7 6.1 0.07 0.08 0.07 89 1015.5
20260902172346 59 146 1.7 6.1 0.07 0.08 0.07 89 1015.6
20260902171848 59 174 1.7 6.1 0.06 0.07 0.06 88 1015.7
20260902171346 59 194 1.7 5.2 0.05 0.06 0.05 88 1015.7
20260902170846 60 149 1.7 9.6 0.04 0.05 0.04 88 1015.7
20260902170347 60 207 2.6 9.6 0.03 0.04 0.04 87 1015.8
20260902165842 60 173 1.7 7.8 0.03 0.04 0.03 87 1015.6
20260902165342 60 237 1.7 7.8 0.02 0.03 0.02 86 1015.6
20260902164844 61 179 1.7 6.1 0.01 0.02 0.01 86 1015.5
20260902164648 62 211 1.7 7.0 0.01 0.02 0.01 84 1015.4
20260902164613 61 179 2.6 7.0 0.01 0.02 0.01 85 1015.4
20260902163449 62 180 0.9 3.5 0.00 0.01 0.00 83 1015.1
20260902163400 62 240 1.7 3.5 0.00 0.01 0.00 83 1015.3
20260902163344 62 190 1.7 4.3 0.00 0.01 0.00 84 1015.3
20260902163247 62 203 0.0 2.6 0.00 0.01 0.00 83 1015.1
20260902144608 60 142 0.0 2.6 0.00 0.01 0.00 85 1015.7
20260902144426 60 150 0.9 3.5 0.00 0.01 0.00 85 1015.9
20260902131810 60 142 0.0 3.5 0.00 0.01 0.00 84 1016.5
20260902131310 60 144 0.0 1.7 0.00 0.01 0.00 84 1016.7
20260902130804 60 119 0.0 1.7 0.00 0.01 0.00 84 1016.6
20260902130304 60 118 0.0 2.6 0.00 0.01 0.00 84 1016.8
20260902125804 61 119 0.9 2.6 0.00 0.01 0.00 83 1016.9
20260902125306 61 96 0.9 4.3 0.00 0.01 0.00 83 1017.0
20260902124804 61 136 1.7 4.3 0.00 0.01 0.00 83 1017.0
20260902124305 61 113 1.7 4.3 0.00 0.01 0.00 83 1017.0
20260902123802 61 149 1.7 5.2 0.00 0.01 0.00 83 1017.1
20260902123302 61 163 0.9 6.1 0.00 0.01 0.00 83 1017.1
20260902122803 61 126 0.9 6.1 0.00 0.01 0.00 83 1017.1
20260902122301 61 138 0.9 2.6 0.00 0.01 0.00 83 1017.3
20260902121758 61 138 0.9 2.6 0.00 0.01 0.00 83 1017.4
20260902121259 61 137 0.9 2.6 0.00 0.01 0.00 83 1017.4
20260902120752 61 129 0.9 4.3 0.00 0.01 0.00 83 1017.6
20260902120251 61 152 0.9 4.3 0.00 0.01 0.00 83 1017.7
20260902115752 60 123 0.9 4.3 0.00 0.01 0.00 83 1017.6
20260902115252 60 147 1.7 7.0 0.00 0.01 0.00 83 1017.7
20260902114752 60 203 1.7 7.0 0.00 0.01 0.00 83 1017.8
20260902114257 60 152 1.7 4.3 0.00 0.01 0.00 84 1017.9
20260902113747 60 157 1.7 3.5 0.00 0.01 0.00 84 1017.9
20260902113245 60 132 0.9 3.5 0.00 0.01 0.00 84 1018.0
20260902112746 60 148 0.9 4.3 0.00 0.01 0.00 85 1018.1
20260902112247 60 169 1.7 4.3 0.00 0.01 0.00 85 1018.2
20260902111746 60 146 0.9 4.3 0.00 0.01 0.00 85 1018.2
20260902111247 60 156 0.9 6.1 0.00 0.01 0.00 85 1018.1
20260902110740 60 155 1.7 6.1 0.00 0.01 0.00 85 1018.2
20260902110237 60 126 1.7 7.0 0.00 0.01 0.00 85 1018.4
20260902105738 60 124 1.7 7.0 0.00 0.01 0.00 85 1018.4
20260902105239 60 152 1.7 6.1 0.00 0.01 0.00 85 1018.7
20260902104737 60 153 1.7 6.1 0.00 0.01 0.00 85 1018.5
20260902104239 59 204 0.9 6.1 0.00 0.01 0.00 85 1018.8
20260902103737 59 150 0.9 3.5 0.00 0.01 0.00 85 1018.9
20260902103234 59 144 1.7 6.1 0.00 0.01 0.00 85 1019.0
20260902102735 59 136 1.7 6.1 0.00 0.01 0.00 86 1018.9
20260902102233 59 161 0.9 6.1 0.00 0.01 0.00 86 1018.9
20260902101732 59 142 0.9 6.1 0.00 0.01 0.00 86 1019.0
20260902101232 59 142 0.9 5.2 0.00 0.01 0.00 86 1019.2
20260902100727 59 141 0.9 4.3 0.00 0.01 0.00 86 1019.1
20260902100227 59 159 1.7 4.3 0.00 0.01 0.00 86 1019.1
20260902095726 59 150 0.9 4.3 0.00 0.01 0.00 86 1019.2
20260902095223 59 181 0.0 3.5 0.00 0.01 0.00 86 1019.3
20260902094724 59 130 0.0 1.7 0.00 0.01 0.00 86 1019.3
20260902094224 59 130 0.0 3.5 0.00 0.01 0.00 86 1019.2
20260902093717 59 132 0.0 3.5 0.00 0.01 0.00 85 1019.2
20260902093219 59 144 0.0 0.9 0.00 0.01 0.00 85 1019.3
20260902092718 59 143 0.0 0.9 0.00 0.01 0.00 85 1019.4
20260902092217 59 143 0.0 0.9 0.00 0.01 0.00 84 1019.4
20260902091718 60 143 0.0 1.7 0.00 0.01 0.00 84 1019.4
20260902091219 60 144 0.0 2.6 0.00 0.01 0.00 84 1019.5
20260902090713 60 143 0.0 2.6 0.00 0.01 0.00 83 1019.6
20260902090214 60 131 0.0 2.6 0.00 0.01 0.00 83 1019.6
20260902085712 60 132 0.9 2.6 0.00 0.01 0.00 83 1019.7
20260902085212 60 141 0.9 3.5 0.00 0.01 0.00 83 1019.7
20260902084712 60 142 1.7 5.2 0.00 0.01 0.00 83 1019.9
20260902084211 60 150 0.9 5.2 0.00 0.01 0.00 83 1019.8
20260902083706 60 185 0.9 5.2 0.00 0.01 0.00 83 1019.9
20260902083205 60 162 0.9 5.2 0.00 0.01 0.00 83 1019.8
20260902082707 60 154 0.9 4.3 0.00 0.01 0.00 83 1020.0
20260902082207 60 168 0.0 2.6 0.00 0.01 0.00 83 1020.0
20260902081704 60 166 0.9 2.6 0.00 0.01 0.00 83 1020.0
20260902081204 60 161 0.9 2.6 0.00 0.01 0.00 83 1020.1
20260902080659 60 157 0.9 4.3 0.00 0.01 0.00 83 1020.0
20260902080153 60 169 0.9 4.3 0.00 0.01 0.00 83 1020.1
20260902075645 60 191 0.9 2.6 0.00 0.01 0.00 83 1020.1
20260902075146 60 197 0.9 4.3 0.00 0.01 0.00 83 1020.0
20260902074645 60 167 1.7 4.3 0.00 0.01 0.00 83 1020.0
20260902074147 60 188 1.7 4.3 0.00 0.01 0.00 83 1019.8
20260902073647 60 192 1.7 5.2 0.00 0.01 0.00 83 1019.8
20260902073145 60 171 1.7 5.2 0.00 0.01 0.00 83 1019.9
20260902072647 60 173 1.7 7.0 0.00 0.01 0.00 83 1020.0
20260902072144 60 196 1.7 7.0 0.00 0.01 0.00 84 1020.0
20260902071640 60 161 1.7 5.2 0.00 0.01 0.00 84 1020.2
20260902071140 60 167 1.7 3.5 0.00 0.01 0.00 84 1020.0
20260902070639 60 190 1.7 6.1 0.00 0.01 0.00 84 1020.2
20260902070140 60 223 1.7 6.1 0.00 0.01 0.00 84 1020.2
20260902065641 60 162 1.7 6.1 0.00 0.01 0.01 84 1020.3
20260902065138 61 151 1.7 6.1 0.00 0.01 0.01 84 1020.3
20260902064635 61 147 1.7 5.2 0.00 0.01 0.01 84 1020.4
20260902064136 61 174 1.7 6.1 0.00 0.01 0.01 84 1020.3
20260902063631 61 177 1.7 6.1 0.00 0.01 0.01 84 1020.3
20260902063129 61 207 1.7 5.2 0.00 0.01 0.01 83 1020.4
20260902062625 62 184 1.7 7.0 0.00 0.01 0.01 83 1020.4
20260902062124 62 185 1.7 7.0 0.00 0.01 0.01 83 1020.4
20260902061625 62 173 1.7 7.0 0.00 0.01 0.01 83 1020.5
20260902061122 62 215 2.6 8.7 0.00 0.01 0.01 83 1020.5
20260902060622 62 213 2.6 8.7 0.00 0.01 0.01 83 1020.5
20260902060121 62 185 2.6 8.7 0.00 0.01 0.01 83 1020.5
20260902055623 62 146 2.6 7.8 0.00 0.01 0.01 83 1020.7
20260902055122 62 152 2.6 7.8 0.00 0.01 0.01 83 1020.7
20260902054622 62 153 1.7 7.8 0.00 0.01 0.01 83 1020.8
20260902054122 62 126 1.7 6.1 0.00 0.01 0.01 83 1020.7
20260902053621 62 187 1.7 6.1 0.00 0.01 0.01 83 1020.8
20260902053121 62 150 1.7 4.3 0.00 0.01 0.01 83 1020.8
20260902052623 62 146 1.7 4.3 0.00 0.01 0.01 83 1020.8
20260902052119 62 155 1.7 5.2 0.00 0.01 0.01 83 1020.8
20260902051619 62 167 1.7 5.2 0.00 0.01 0.01 83 1020.9
20260902051122 62 157 0.9 4.3 0.00 0.01 0.01 83 1020.9
20260902050617 62 141 0.9 4.3 0.00 0.01 0.01 83 1020.9
20260902050117 62 157 0.9 2.6 0.00 0.01 0.01 82 1020.9
20260902045618 62 159 0.9 2.6 0.00 0.01 0.01 82 1020.9
20260902045118 62 158 0.9 2.6 0.00 0.01 0.01 82 1020.9
20260902044617 62 158 0.0 1.7 0.00 0.01 0.01 82 1020.8
20260902044119 62 157 0.0 1.7 0.00 0.01 0.01 82 1020.8
20260902043613 62 157 0.0 1.7 0.00 0.01 0.01 81 1020.9
20260902043114 62 158 0.0 1.7 0.00 0.01 0.01 81 1020.8
20260902042614 62 157 0.0 1.7 0.00 0.01 0.01 81 1020.8
20260902042114 63 157 0.0 2.6 0.00 0.01 0.01 81 1020.8
20260902041614 63 157 0.0 2.6 0.00 0.01 0.01 81 1020.8
20260902041115 63 156 0.0 1.7 0.00 0.01 0.01 81 1020.9
20260902040609 63 157 0.0 1.7 0.00 0.01 0.01 81 1021.0
20260902040110 63 157 0.0 1.7 0.00 0.01 0.01 81 1020.9
20260902035609 63 157 0.9 2.6 0.00 0.01 0.01 81 1020.9
20260902035110 63 155 1.7 5.2 0.00 0.01 0.01 80 1020.8
20260902034609 63 151 1.7 5.2 0.00 0.01 0.01 80 1020.8
20260902034110 63 137 1.7 6.1 0.00 0.01 0.01 80 1020.8
20260902033604 63 178 1.7 6.1 0.00 0.01 0.01 80 1020.8
20260902033105 63 163 2.6 6.1 0.00 0.01 0.01 80 1020.8
20260902032600 63 246 1.7 6.1 0.00 0.01 0.01 80 1020.8
20260902032100 63 181 1.7 6.1 0.00 0.01 0.01 80 1020.8
20260902031557 63 182 1.7 6.1 0.00 0.01 0.01 80 1020.7
20260902031057 63 230 1.7 5.2 0.00 0.01 0.01 79 1020.7
20260902030555 63 197 1.7 5.2 0.00 0.01 0.01 79 1020.6
20260902030056 64 184 1.7 5.2 0.00 0.01 0.01 79 1020.6
20260902025551 64 167 0.9 5.2 0.00 0.01 0.01 79 1020.5
20260902025051 64 187 0.9 2.6 0.00 0.01 0.01 79 1020.5
20260902024553 64 199 0.9 2.6 0.00 0.01 0.01 79 1020.5
20260902024051 64 217 0.9 3.5 0.00 0.01 0.01 78 1020.4
20260902023555 64 230 0.9 4.3 0.00 0.01 0.01 78 1020.5
20260902023050 64 161 0.9 4.3 0.00 0.01 0.01 78 1020.4
20260902022545 64 148 0.9 4.3 0.00 0.01 0.01 78 1020.4
20260902022045 64 172 0.9 5.2 0.00 0.01 0.01 78 1020.4
20260902021546 64 194 0.9 5.2 0.00 0.01 0.01 78 1020.4
20260902021047 64 242 0.9 3.5 0.00 0.01 0.01 78 1020.5
20260902020543 64 244 0.9 3.5 0.00 0.01 0.01 78 1020.4
20260902020044 64 186 0.9 3.5 0.00 0.01 0.01 78 1020.4
20260902015542 64 261 0.9 3.5 0.00 0.01 0.01 78 1020.3
20260902015039 64 252 0.9 3.5 0.00 0.01 0.01 78 1020.3
20260902014541 64 186 0.9 2.6 0.00 0.01 0.01 78 1020.3
20260902014041 64 185 0.9 4.3 0.00 0.01 0.01 78 1020.2
20260902013537 64 244 0.9 4.3 0.00 0.01 0.01 78 1020.4
20260902013038 64 171 0.9 4.3 0.00 0.01 0.01 79 1020.5
20260902012535 64 246 1.7 4.3 0.00 0.01 0.01 79 1020.4
20260902012035 64 178 1.7 6.1 0.00 0.01 0.01 78 1020.5
20260902011536 64 246 1.7 6.1 0.00 0.01 0.01 78 1020.6
20260902011033 64 182 2.6 6.1 0.00 0.01 0.01 78 1020.6
20260902010531 64 243 2.6 9.6 0.00 0.01 0.01 77 1020.5
20260902010030 65 198 2.6 9.6 0.00 0.01 0.01 78 1020.4
20260902005524 65 228 3.5 7.8 0.00 0.01 0.01 77 1020.3
20260902005023 65 266 2.6 7.8 0.00 0.01 0.01 77 1020.2
20260902004523 65 204 2.6 7.0 0.00 0.01 0.01 76 1020.2
20260902004023 65 231 3.5 9.6 0.00 0.01 0.01 76 1020.2
20260902003523 66 274 2.6 9.6 0.00 0.01 0.01 75 1020.1
20260902003023 66 222 1.7 6.1 0.00 0.01 0.01 75 1020.1
20260902002518 67 219 3.5 7.8 0.00 0.01 0.01 75 1019.9
20260902002017 67 241 3.5 7.8 0.00 0.01 0.01 74 1020.0
20260902001517 67 273 2.6 7.0 0.00 0.01 0.01 73 1019.9
20260902001017 67 242 1.7 4.3 0.00 0.01 0.01 73 1019.9
20260902000517 67 182 2.6 6.1 0.00 0.01 0.01 72 1019.9
20260902000018 67 247 2.6 6.1 0.00 0.01 0.01 72 1020.0
20260901235514 67 268 2.6 7.0 0.00 0.01 0.01 72 1019.9
20260901235012 67 241 1.7 7.0 0.00 0.01 0.01 71 1019.9
20260901234511 67 204 2.6 7.8 0.00 0.01 0.01 71 1019.9
20260901234011 67 240 3.5 7.8 0.00 0.01 0.01 71 1019.9
20260901233510 67 248 2.6 7.8 0.00 0.01 0.01 71 1019.9
20260901232508 68 226 1.7 6.1 0.00 0.01 0.01 72 1019.9
20260901232009 68 232 2.6 6.1 0.00 0.01 0.01 72 1020.0
20260901231510 68 213 2.6 6.1 0.00 0.01 0.01 72 1020.0
20260901231006 68 273 1.7 6.1 0.00 0.01 0.01 72 1020.0
20260901230505 68 254 1.7 4.3 0.00 0.01 0.01 72 1020.1
20260901230005 68 211 1.7 5.2 0.00 0.01 0.01 72 1020.0
20260901225500 68 166 1.7 5.2 0.00 0.01 0.01 71 1020.0
20260901224959 68 205 1.7 5.2 0.00 0.01 0.01 71 1020.0
20260901224458 68 259 1.7 5.2 0.00 0.01 0.01 72 1020.0
20260901223958 68 242 1.7 4.3 0.00 0.01 0.01 72 1020.0
20260901223459 68 191 2.6 6.1 0.00 0.01 0.01 72 1020.0
20260901223000 68 217 2.6 6.1 0.00 0.01 0.01 72 1020.1
20260901222453 68 163 2.6 6.1 0.00 0.01 0.01 71 1020.1
20260901221953 68 249 2.6 6.1 0.00 0.01 0.01 71 1020.1
20260901221453 68 188 2.6 5.2 0.00 0.01 0.01 71 1020.1
20260901220952 68 207 1.7 5.2 0.00 0.01 0.01 71 1020.1
20260901220453 68 215 2.6 8.7 0.00 0.01 0.01 71 1020.0
20260901215954 68 167 2.6 8.7 0.00 0.01 0.01 71 1020.0
20260901215448 68 209 1.7 5.2 0.00 0.01 0.01 72 1020.0
20260901214946 67 212 1.7 7.0 0.00 0.01 0.01 72 1020.0
20260901214446 67 148 1.7 7.0 0.00 0.01 0.01 72 1019.9
20260901213948 67 215 2.6 7.0 0.00 0.01 0.01 72 1019.9
20260901213447 67 246 2.6 7.0 0.00 0.01 0.01 73 1019.9
20260901212948 67 196 1.7 7.0 0.00 0.01 0.01 73 1019.8
20260901212445 67 163 1.7 7.8 0.00 0.01 0.01 72 1019.9
20260901211943 67 216 2.6 7.8 0.00 0.01 0.01 73 1019.9
20260901211440 67 155 3.5 8.7 0.00 0.01 0.01 72 1020.0
20260901210940 68 152 2.6 8.7 0.00 0.01 0.01 72 1020.0
20260901210438 68 182 1.7 7.0 0.00 0.01 0.01 72 1020.0
20260901205940 68 166 2.6 6.1 0.00 0.01 0.01 72 1019.8
20260901205437 68 175 1.7 6.1 0.00 0.01 0.01 71 1019.9
20260901204937 68 182 1.7 7.8 0.00 0.01 0.01 71 1019.9
20260901204438 69 177 2.6 7.8 0.00 0.01 0.01 71 1019.9
20260901203934 69 232 2.6 7.0 0.00 0.01 0.01 70 1019.9
20260901203436 69 155 2.6 6.1 0.00 0.01 0.01 70 1019.9
20260901202934 69 161 2.6 9.6 0.00 0.01 0.01 69 1019.9
20260901202436 69 193 3.5 9.6 0.00 0.01 0.01 70 1020.0
20260901201932 69 263 2.6 7.8 0.00 0.01 0.01 71 1020.1
20260901201430 69 162 2.6 7.8 0.00 0.01 0.01 72 1020.0
20260901200932 68 212 2.6 7.0 0.00 0.01 0.01 73 1020.0
20260901200431 67 189 2.6 7.0 0.00 0.01 0.01 75 1020.0
20260901195930 67 194 1.7 5.2 0.00 0.01 0.01 77 1020.0
20260901195431 67 172 0.9 5.2 0.00 0.01 0.01 78 1020.1
20260901194932 67 168 0.9 5.2 0.00 0.01 0.01 77 1020.1
20260901194429 67 162 0.9 5.2 0.00 0.01 0.01 78 1020.2
20260901193928 67 175 0.9 5.2 0.00 0.01 0.01 78 1020.3
20260901193429 67 173 1.7 7.0 0.00 0.01 0.01 78 1020.3
20260901192929 67 197 2.6 7.0 0.00 0.01 0.01 78 1020.3
20260901192430 67 167 1.7 6.1 0.00 0.01 0.01 78 1020.4
20260901191928 67 133 1.7 7.0 0.01 0.01 0.01 78 1020.5
20260901191429 67 123 1.7 7.0 0.01 0.01 0.01 79 1020.5
20260901190929 67 147 1.7 9.6 0.01 0.01 0.01 80 1020.5
20260901190428 67 138 1.7 9.6 0.01 0.01 0.01 81 1020.7
20260901185930 66 180 2.6 7.0 0.01 0.01 0.01 83 1020.6
20260901185423 66 206 2.6 7.0 0.01 0.01 0.01 83 1020.7